Simultaneous Nadir Overpasses (SNOs) Predictions

Prediction of SNOs between TERRA and METOP-C Satellite Orbit:

Table of predicted SNOs for the next 14.0 days since TLE Epoch: 2/1/2020
Index Date (TERRA) Time (TERRA) Lat,Lon (TERRA) SZA (TERRA ) Date (METOP-C) Time (METOP-C) Lat,Lon (METOP-C) SZA (METOP-C ) Distance(km) Time Diff (sec)
1 02/03/2020 12:39:26 81.28, 36.92 100.13 02/03/2020 12:38:59 81.28, 36.96 100.12 0.73 27
2 02/03/2020 13:28:53 -81.28,-155.55 79.90 02/03/2020 13:29:40 -81.28,-155.49 79.87 1.29 47
3 02/06/2020 08:13:44 81.28, 103.35 99.28 02/06/2020 08:12:47 81.28, 103.26 99.25 1.61 57
4 02/06/2020 09:03:11 -81.28, -89.09 80.75 02/06/2020 09:03:28 -81.28, -89.16 80.74 1.10 17
5 02/09/2020 04:37:30 -81.28, -22.65 81.62 02/09/2020 04:37:17 -81.28, -22.82 81.65 2.88 13
6 02/09/2020 05:26:56 81.28, 145.09 98.39 02/09/2020 05:27:55 81.28, 144.91 98.39 3.09 59
7 02/12/2020 00:11:49 -81.28, 43.76 82.53 02/12/2020 00:11:05 -81.28, 43.89 82.54 2.22 44
8 02/12/2020 01:01:15 81.28,-148.53 97.47 02/12/2020 01:01:43 81.28,-148.39 97.50 2.34 28
9 02/14/2020 19:46:07 -81.28, 110.15 83.47 02/14/2020 19:44:53 -81.27, 110.21 83.50 1.08 74
10 02/14/2020 20:35:33 81.28, -82.17 96.52 02/14/2020 20:35:31 81.28, -82.08 96.54 1.62 2




NCC Satellite Simultaneous Nadir Overpasses (SNOs) Prediction Service
